GFSNE_500_rhum_036.txt.gz
RH
40 69 66 56 71 77 86 90 90 74 97 81 87 83 96 96 98 98 98 100 94 99 100 93 75 65 66 73 65 67 54 56 58 54 62 60 59 59
71 64 96 91 76 76 83 88 78 74 92 84 79 96 97 100 98 99 99 97 96 82 84 86 90 78 55 52 70 67 70 68 60 53 47 45 66 69
100 95 88 92 100 94 81 89 91 64 98 96 96 97 98 96 98 99 98 95 82 63 69 79 75 74 85 80 77 66 60 54 56 51 46 57 60 61
94 100 100 100 100 100 90 90 78 99 99 93 99 98 99 96 98 99 97 77 49 87 82 76 74 67 71 71 70 63 59 56 55 57 61 60 67 70
100 100 99 100 100 100 95 88 82 68 95 97 98 99 97 97 86 62 56 76 99 95 86 91 84 68 67 43 26 16 8 8 7 7 8 9 10 9
100 100 100 98 100 95 100 98 95 80 81 75 98 97 71 55 45 44 82 68 62 64 61 54 29 25 24 18 17 14 7 4 4 3 3 3 3 3
100 99 98 100 96 87 79 100 93 82 90 87 64 49 41 35 44 56 52 47 38 28 17 5 4 4 4 4 4 4 4 4 4 4 4 4 5 5
100 100 100 98 90 88 90 96 93 89 60 49 38 42 57 68 77 40 37 25 9 7 6 4 4 5 5 5 6 7 7 6 6 5 5 5 6 7
98 100 96 100 100 98 95 86 66 65 70 70 70 64 50 48 15 11 9 7 5 5 5 7 7 11 11 12 12 10 9 8 8 8 8 10 19 28
96 99 100 98 99 99 100 99 95 85 75 61 46 24 13 10 8 6 5 5 6 8 8 15 14 15 16 18 17 13 11 12 12 10 13 30 41 42
100 74 69 82 48 33 28 44 45 27 20 18 17 12 8 8 7 6 6 8 14 16 16 15 16 17 22 27 25 22 21 20 16 16 30 38 40 40
86 81 76 33 14 15 16 18 22 22 21 16 12 10 8 7 7 6 11 16 18 19 17 20 22 19 24 36 34 32 31 24 17 22 33 39 40 35
10 8 10 12 14 17 19 20 23 25 19 13 14 12 10 8 7 9 14 19 23 27 26 25 31 29 28 30 61 47 39 31 23 21 25 34 38 34
17 19 25 31 34 29 23 26 27 20 16 13 15 15 13 10 9 17 21 20 26 31 33 33 34 33 35 34 43 57 44 42 35 26 24 26 31 40
38 39 38 38 42 40 32 35 33 22 15 11 15 14 10 10 15 26 24 26 28 30 33 37 37 34 36 35 35 48 32 38 32 30 23 20 26 45
48 48 48 46 46 43 43 42 34 24 13 13 14 10 10 14 31 34 32 35 39 38 41 44 46 38 37 42 40 42 37 25 30 28 20 18 33 63
54 54 55 53 49 51 51 45 42 34 24 17 11 13 19 25 46 49 48 49 51 50 55 59 56 49 37 43 41 44 32 27 24 25 20 20 41 72
58 59 60 59 58 56 50 43 34 27 18 13 15 22 28 32 50 58 50 44 54 56 54 67 71 58 50 55 44 44 41 28 31 30 24 26 40 83
57 57 58 60 60 55 46 42 32 13 12 16 23 33 36 38 41 43 43 41 56 60 60 70 80 62 56 44 53 54 35 29 30 29 27 26 52 89
51 54 55 55 52 48 42 27 21 13 15 25 32 40 46 46 48 50 52 50 62 69 67 90 89 74 59 39 34 52 47 34 30 22 23 25 66 91
54 56 58 57 52 36 26 13 13 15 21 36 41 46 54 58 60 55 52 70 77 66 80 100 91 77 60 37 31 34 34 30 27 20 22 24 56 94
56 60 63 52 35 16 8 10 13 19 30 51 50 47 44 47 48 50 74 88 79 87 95 80 84 72 58 38 31 27 30 38 31 27 19 18 60 87
56 55 50 37 16 8 8 8 9 11 23 61 86 80 80 81 84 87 88 88 93 82 60 68 68 56 46 39 31 26 30 31 27 16 12 22 76 89

GFSNE_500_rhum_039.txt.gz
RH
11 22 46 69 77 94 100 100 94 79 64 65 76 92 99 94 98 99 94 95 97 98 99 98 99 97 96 97 65 72 65 68 71 58 50 45 56 52
18 24 54 83 100 100 100 100 99 90 77 70 69 89 98 98 99 99 98 96 97 99 99 98 97 97 96 91 56 63 65 65 69 58 51 51 52 55
34 78 91 71 87 97 100 100 99 92 80 70 71 84 88 98 100 98 95 97 98 98 98 97 93 90 88 72 61 74 61 62 55 48 46 53 60 61
40 76 81 70 100 100 100 93 100 100 100 100 92 98 100 100 97 97 97 99 99 97 96 94 92 81 72 63 55 57 54 52 45 43 44 46 42 40
37 61 70 74 85 100 100 100 100 100 99 90 92 100 99 98 93 97 98 97 90 91 68 46 42 48 52 51 50 43 39 35 25 23 19 17 16 20
41 54 74 86 83 100 96 99 100 100 100 100 100 100 99 99 98 98 97 87 60 55 59 60 45 29 24 24 16 8 7 6 5 5 4 4 4 4
51 64 62 69 80 90 90 93 96 94 97 100 98 97 96 97 98 92 77 59 38 44 30 16 10 7 7 5 5 4 4 4 4 4 4 4 4 4
50 57 75 84 100 80 91 90 82 78 77 76 87 94 79 60 64 47 33 13 8 10 8 7 8 5 5 4 4 5 6 7 8 8 8 9 9 8
50 66 88 94 90 88 81 75 90 90 100 89 81 91 82 53 24 11 12 10 8 8 8 6 6 5 6 9 11 13 13 13 13 14 16 13 11 11
56 69 63 68 79 84 63 67 43 58 56 40 30 22 21 18 16 12 11 11 10 9 7 6 7 9 13 16 16 16 16 17 17 18 19 19 18 16
52 50 56 56 36 17 20 18 17 18 20 22 23 23 24 22 18 15 17 16 13 11 9 9 12 16 19 23 23 22 20 19 19 20 22 22 20 16
26 25 24 20 17 18 18 19 20 23 23 23 26 25 21 17 15 14 16 18 16 13 12 12 14 15 19 30 31 29 25 22 23 26 25 24 17 18
33 33 35 36 36 37 37 40 42 40 33 32 36 36 27 24 15 11 14 16 15 13 14 21 24 23 21 27 48 40 34 31 33 33 29 27 23 22
39 41 43 43 44 46 45 44 45 44 44 46 45 42 38 31 25 21 15 12 14 22 30 30 30 29 26 26 43 51 41 45 48 42 40 34 29 27
45 46 48 50 50 50 51 52 53 54 53 50 46 40 34 27 20 15 14 18 28 36 43 44 43 43 36 30 41 56 40 59 58 48 44 35 30 28
45 43 42 45 48 50 52 53 54 51 48 43 42 39 25 15 15 17 22 28 34 48 54 55 48 42 40 34 36 56 55 41 52 49 43 36 34 30
48 43 42 42 42 43 44 48 50 48 39 29 23 16 14 16 19 23 29 35 38 48 54 43 38 34 34 37 41 61 62 51 42 43 37 31 34 30
47 44 43 43 43 44 46 51 46 20 12 9 7 8 12 20 29 36 44 50 48 50 52 51 49 41 35 47 51 67 69 51 41 38 31 24 32 35
44 44 44 43 41 40 46 37 21 11 7 7 8 8 12 31 44 47 55 64 64 60 61 60 53 37 49 53 79 92 66 57 38 38 32 26 27 37
44 45 44 42 37 40 40 32 13 8 7 8 10 11 11 24 59 58 56 62 66 66 65 62 53 64 56 63 66 88 84 52 34 31 31 25 29 31
48 46 45 39 34 38 34 29 14 8 8 9 11 13 12 12 32 67 76 68 58 58 69 90 86 75 77 55 36 66 79 63 34 24 24 23 25 24
53 52 49 39 34 40 35 30 15 9 10 11 13 15 14 11 13 21 39 71 90 90 92 92 90 69 44 43 45 40 46 50 39 26 21 20 17 12
60 59 53 44 42 47 39 29 12 10 11 14 15 16 18 17 18 20 27 32 36 41 43 46 52 56 54 45 33 34 36 36 26 22 26 21 13 10

GFSNE_500_rhum_042.txt.gz
RH
15 15 11 11 16 13 18 34 47 47 58 98 100 100 91 75 75 99 96 98 99 96 98 98 98 97 99 98 98 98 98 97 98 99 94 69 65 62
14 13 11 16 18 20 26 53 72 65 76 89 92 92 95 82 87 100 98 98 97 98 98 98 99 96 98 99 99 98 98 98 98 98 80 70 59 51
16 11 10 18 26 30 46 59 82 72 82 99 98 100 98 77 88 94 99 99 99 94 96 98 99 99 98 99 98 95 93 92 94 92 90 71 61 56
15 12 10 13 32 41 53 61 62 67 90 100 100 100 98 95 87 100 95 100 100 96 98 98 91 86 68 89 94 96 90 89 90 80 72 51 49 50
18 16 11 16 31 48 58 68 60 79 79 86 99 100 100 100 99 100 99 98 99 95 84 97 93 74 54 57 61 62 50 44 54 43 34 38 35 32
22 19 15 18 35 57 70 61 63 70 69 80 68 97 100 100 100 79 82 83 94 98 92 88 78 48 34 36 24 17 13 9 8 9 9 10 9 9
28 25 23 24 44 50 62 75 77 89 89 93 58 69 98 97 84 70 80 85 77 75 49 52 58 14 8 9 9 9 9 9 8 8 7 5 4 4
32 35 33 32 44 59 70 77 73 77 83 68 66 71 75 79 80 90 90 90 64 22 9 10 8 8 10 9 8 8 8 8 7 6 5 5 5 6
37 38 41 40 45 48 53 60 60 59 71 78 80 80 71 59 52 34 21 17 14 14 15 16 17 16 16 15 15 12 9 8 9 10 11 12 12 12
19 19 20 25 28 30 26 22 19 20 20 21 22 23 22 23 23 24 23 22 20 18 17 16 15 17 18 18 15 13 12 13 13 14 15 17 17 17
22 23 24 26 27 29 31 32 32 34 34 34 34 34 33 31 32 36 37 27 19 18 13 12 13 14 15 15 17 17 18 20 19 16 16 21 22 20
28 30 32 35 38 40 40 41 41 41 41 42 43 43 43 45 46 45 44 42 40 36 32 25 16 13 14 19 22 24 25 24 22 18 17 22 24 22
34 36 37 39 39 40 42 43 42 42 43 44 45 48 48 46 46 45 42 41 38 30 25 16 15 16 21 35 37 38 37 34 28 22 19 22 26 24
42 43 42 41 38 36 34 34 34 36 37 40 43 42 38 28 19 19 20 18 15 15 16 18 22 27 35 47 54 56 52 46 37 30 28 29 30 27
57 54 48 44 39 35 33 33 32 32 32 36 38 26 15 11 9 7 7 8 11 17 24 31 34 38 54 64 63 55 51 53 47 39 41 47 41 34
67 61 50 45 39 35 34 33 33 29 30 33 26 17 11 7 6 7 8 9 14 28 33 40 49 51 52 50 42 44 45 40 65 51 49 62 53 43
66 58 47 40 38 36 35 34 27 24 30 31 21 13 7 6 8 8 8 9 13 38 49 50 56 58 54 49 48 53 51 55 55 51 64 66 64 47
64 50 46 43 41 39 38 34 28 28 31 30 26 13 8 8 9 9 10 10 10 27 56 60 66 69 64 63 64 58 65 58 65 60 65 49 59 50
56 52 50 49 47 45 45 39 34 36 38 34 20 12 9 10 11 10 12 12 11 16 54 68 62 56 55 57 57 73 74 80 64 70 50 46 46 48
61 60 58 57 55 52 52 45 42 44 47 41 25 13 10 11 13 11 14 16 16 16 35 79 86 81 70 63 70 100 100 76 54 38 49 43 38 35
71 68 67 68 63 58 57 50 43 49 53 43 27 16 12 13 14 12 14 20 21 22 29 37 43 55 68 66 68 76 67 75 46 41 42 33 31 30
78 76 78 81 71 65 59 55 55 62 60 45 32 16 12 14 15 15 16 21 25 27 27 33 38 40 42 40 41 44 62 66 54 31 28 25 23 23
85 84 87 89 79 72 66 60 60 65 64 46 25 12 12 14 15 17 18 20 26 33 36 40 46 49 56 58 52 53 56 60 52 48 45 22 16 14

GFSNE_500_rhum_048.txt.gz
RH
13 15 14 16 19 20 22 26 24 20 16 15 12 19 27 30 42 53 72 92 50 35 35 97 100 100 100 100 99 93 95 98 85 90 96 97 97 96
15 16 17 20 18 20 27 30 26 22 19 16 17 18 22 32 36 42 70 84 79 69 84 98 100 98 99 99 98 80 91 91 88 73 95 98 100 98
17 18 18 16 17 20 30 30 29 24 22 21 17 19 18 23 24 28 91 100 95 83 88 99 98 78 98 96 97 90 98 97 100 88 88 96 89 95
20 17 15 15 18 24 29 32 29 27 18 14 15 25 12 17 18 21 68 100 100 100 99 100 90 92 100 100 98 93 99 98 98 72 92 100 99 90
18 16 18 19 20 27 33 35 33 25 11 13 12 29 24 21 21 24 26 75 67 81 59 59 100 100 100 100 87 86 83 94 98 92 85 79 77 84
19 19 18 18 22 25 32 32 27 14 13 15 16 18 30 41 41 44 49 57 62 65 68 77 83 93 95 93 84 82 74 84 87 84 71 47 35 28
19 19 20 21 23 22 18 15 14 16 19 20 22 23 22 23 24 27 28 28 23 23 24 26 26 25 20 16 20 24 22 17 15 11 10 9 8 7
20 21 22 23 19 16 18 20 21 23 23 22 24 24 23 23 24 28 29 31 34 35 36 34 33 32 31 32 31 30 29 26 23 24 22 18 18 18
21 23 24 23 22 21 22 26 28 28 27 25 26 25 24 23 23 24 25 27 27 27 37 35 33 38 36 33 36 40 42 31 15 12 11 12 13 13
22 24 24 25 25 27 30 32 33 34 33 32 30 29 27 25 24 22 22 20 17 17 21 20 15 10 8 8 8 10 17 30 37 38 36 32 28 22
26 28 28 29 33 37 44 49 48 42 39 37 35 32 30 27 25 21 18 17 16 18 20 20 19 14 11 8 7 6 6 7 7 7 7 8 10 13
33 32 32 36 45 52 56 57 56 50 44 39 35 33 31 28 26 23 21 19 20 20 21 21 19 14 8 8 7 7 7 7 7 8 11 17 22 21
37 38 42 47 50 64 62 57 56 52 43 40 38 36 34 32 30 28 26 24 25 25 26 24 18 15 10 8 9 8 7 8 9 11 15 26 35 40
51 54 58 63 71 70 64 58 56 48 45 44 45 45 43 40 38 36 35 33 31 28 29 27 23 15 10 10 9 9 10 9 10 12 16 29 47 62
80 81 81 80 79 78 70 61 54 51 52 51 49 50 50 47 46 42 34 37 37 34 35 32 26 15 12 11 10 12 12 14 14 12 17 41 65 82
91 92 88 84 83 85 80 68 61 60 62 57 55 55 59 58 53 51 50 43 41 40 43 41 28 14 13 13 11 13 17 18 20 20 26 46 62 76
79 88 88 93 99 97 92 83 74 73 70 64 68 71 73 74 69 55 46 51 53 55 53 42 21 11 13 15 16 17 19 23 22 28 43 56 76 80
76 85 93 98 100 100 100 94 87 83 77 79 83 85 85 88 82 65 63 72 66 60 52 27 11 11 13 16 17 19 26 25 26 29 42 54 71 83
71 76 86 96 100 100 100 98 94 94 96 94 91 86 88 90 90 85 86 81 72 64 36 12 11 12 13 16 22 26 30 32 34 37 34 35 49 93
88 85 86 96 100 100 98 96 94 92 89 88 90 91 89 90 95 89 82 77 72 50 14 12 13 13 14 16 21 38 40 42 41 46 48 47 49 48
100 99 99 99 98 95 96 95 95 93 88 94 95 94 92 95 86 83 85 81 59 18 13 14 15 16 18 18 23 35 52 54 49 46 46 40 42 53
100 100 100 100 98 95 94 92 91 90 94 93 95 89 76 71 68 82 89 61 18 14 17 18 19 20 22 22 26 34 52 59 59 54 47 39 36 34
98 96 96 96 89 83 78 81 89 86 72 58 38 34 40 68 92 91 68 22 15 17 18 27 28 29 33 36 38 43 52 61 62 56 52 33 23 24

GFSNE_500_rhum_051.txt.gz
RH
11 10 10 11 13 16 16 16 14 14 18 29 28 25 21 10 6 10 15 23 60 74 57 46 100 87 35 57 100 99 98 98 98 96 89 81 82 97
14 13 14 17 20 21 19 15 14 16 23 29 28 26 11 8 8 11 14 17 27 76 84 92 56 46 57 75 94 99 100 97 94 86 95 93 90 91
16 15 18 20 22 19 16 16 17 21 29 33 30 20 8 8 10 11 14 14 20 66 71 69 90 99 99 100 90 100 100 88 80 89 97 97 93 95
19 20 22 23 21 17 17 18 20 27 29 38 28 11 13 12 11 16 18 16 18 25 55 62 62 86 88 78 95 96 100 100 97 100 100 78 100 96
19 22 21 19 18 17 17 18 20 23 32 29 13 15 18 17 16 16 21 28 33 39 44 43 53 56 82 94 94 100 99 95 100 92 99 100 97 90
25 24 22 19 18 18 19 18 16 16 14 15 19 21 20 19 19 18 19 20 22 23 25 26 26 32 50 69 77 82 86 80 78 82 87 97 100 99
25 22 19 19 21 20 20 17 16 17 19 22 23 23 22 23 23 22 21 19 19 21 21 22 23 26 29 31 30 26 24 24 23 22 17 17 15 19
23 20 20 20 20 20 20 19 20 22 25 27 28 29 28 28 26 26 24 22 21 21 18 15 16 15 18 23 28 31 32 33 35 40 37 30 24 20
24 22 21 21 20 21 22 24 28 33 36 39 40 36 34 32 30 27 26 24 21 20 18 16 16 16 17 17 16 14 10 8 9 10 8 8 16 34
29 26 25 24 24 26 26 31 39 47 51 49 48 46 41 36 32 30 28 26 24 23 22 20 18 20 20 21 20 18 16 15 10 8 8 7 7 11
38 34 32 32 32 30 32 39 45 51 55 52 51 50 45 39 37 35 33 32 31 29 27 23 22 23 21 20 22 22 20 14 11 9 8 7 7 7
49 44 38 34 34 37 40 45 49 61 62 57 54 50 44 42 42 40 39 37 37 36 34 32 27 27 25 22 24 25 24 19 11 10 9 8 7 7
58 60 59 58 59 62 64 69 73 75 74 64 56 50 49 52 45 41 40 43 44 43 43 35 32 32 34 35 36 33 30 19 13 11 10 8 9 9
62 70 73 77 82 84 83 79 77 77 79 78 67 59 60 60 55 52 54 57 56 56 56 50 42 44 48 44 47 43 31 18 12 12 10 10 11 11
55 61 62 65 66 73 83 86 88 91 92 90 84 77 75 72 66 68 73 73 72 72 70 55 53 64 65 56 52 27 14 11 12 14 14 12 12 13
56 58 60 63 61 63 75 83 88 93 95 97 98 95 91 89 88 84 77 78 82 80 77 74 80 74 65 63 43 14 10 12 15 16 16 15 14 15
68 69 70 67 63 62 65 71 83 89 90 93 96 99 99 96 90 84 88 89 86 87 83 71 66 66 67 48 14 12 13 14 14 17 20 21 23 24
86 84 81 79 78 78 79 80 88 91 95 100 100 98 98 95 91 93 90 90 90 86 80 79 72 68 44 14 14 15 16 16 17 19 22 24 34 37
96 99 97 96 95 94 95 96 95 98 100 100 100 97 94 89 91 86 77 64 58 61 74 82 73 41 17 16 17 19 19 18 19 22 23 28 39 46
100 97 95 94 94 94 92 93 98 96 92 90 80 60 56 59 51 41 35 35 51 83 91 72 43 17 16 14 24 26 21 20 21 26 31 36 42 45
100 98 99 96 88 84 87 90 82 67 50 20 15 17 22 27 28 30 37 60 83 82 76 34 17 15 15 17 25 28 31 29 27 28 34 38 48 51
100 100 98 93 86 86 82 62 26 14 14 15 16 22 29 24 24 31 53 78 80 76 40 16 15 12 17 22 23 31 44 50 50 49 51 50 49 50
100 100 98 91 89 78 46 15 17 21 24 26 21 27 27 21 21 25 48 69 79 40 17 14 12 14 22 24 30 30 31 34 32 30 35 33 28 23

GFSNE_500_rhum_054.txt.gz
RH
12 16 15 12 14 14 13 15 16 18 20 18 17 19 24 27 26 12 7 8 9 10 13 19 44 58 44 80 78 38 32 100 46 71 98 100 99 99
16 15 11 13 15 16 17 19 21 21 18 18 19 23 30 32 26 10 10 10 11 12 13 19 54 49 62 57 44 96 100 100 99 99 100 99 94 96
15 11 13 15 17 18 21 21 20 18 18 19 22 27 34 31 13 13 13 10 10 12 18 26 33 41 58 84 98 97 87 82 100 95 93 86 98 93
12 11 12 14 19 22 23 22 19 17 18 19 21 31 27 14 16 16 15 14 14 14 14 15 18 27 47 55 79 79 82 100 100 94 92 87 85 96
12 12 15 20 20 22 21 19 18 19 18 17 16 14 16 20 20 18 18 19 19 18 17 15 14 15 21 27 52 87 100 95 99 96 90 86 89 92
16 16 18 18 21 20 18 18 19 18 16 15 17 20 24 24 24 23 23 24 24 23 21 19 17 14 14 18 25 28 32 44 55 56 61 70 78 85
18 17 19 23 22 20 18 18 18 18 18 20 23 26 29 31 33 31 29 28 28 25 23 21 18 17 15 14 13 13 15 17 21 23 25 26 26 35
17 18 24 25 23 20 20 19 19 21 22 25 31 40 45 45 45 42 38 34 30 28 25 23 22 21 19 18 16 16 16 15 14 13 13 14 21 32
21 25 28 29 27 24 23 23 24 24 26 31 41 46 51 48 45 47 44 38 34 33 32 30 28 27 25 24 21 20 20 19 18 18 17 16 14 11
26 28 34 35 34 31 29 28 29 29 32 39 43 45 57 58 52 49 46 41 39 39 36 32 31 30 31 30 27 24 24 24 21 19 19 20 20 15
32 36 37 41 42 43 41 36 35 38 42 46 51 66 72 68 58 50 46 46 47 42 37 35 34 35 37 39 36 31 27 29 30 26 23 24 24 23
38 38 43 49 48 48 53 56 61 66 67 68 68 69 71 74 73 65 57 58 59 55 50 50 52 52 50 50 50 48 42 36 37 44 42 34 32 27
44 49 50 48 46 46 46 48 51 59 67 74 78 81 82 82 83 81 77 75 74 70 70 71 68 63 65 68 66 58 48 52 61 59 51 42 40 30
47 53 56 51 52 48 44 44 44 45 53 65 72 78 84 89 92 90 87 86 84 86 88 83 76 75 78 82 80 74 75 83 68 57 58 46 25 13
60 50 50 56 54 53 53 55 55 54 54 58 66 74 81 85 88 90 90 90 90 88 83 78 81 86 85 86 89 91 82 74 68 64 53 30 14 11
77 61 50 55 69 71 71 73 73 72 74 75 76 81 88 91 92 89 86 86 83 69 70 75 77 76 74 73 69 74 68 71 46 25 18 14 13 12
82 73 56 56 75 83 85 89 87 85 84 89 91 94 94 91 89 79 44 19 26 37 41 37 33 32 34 56 81 76 49 29 19 15 16 16 16 15
86 82 66 63 73 82 85 85 80 81 84 85 89 93 88 76 37 13 13 14 20 25 25 28 32 47 76 82 66 43 21 15 15 17 21 17 19 18
89 80 74 77 85 88 88 82 76 73 78 85 82 70 38 13 14 15 13 16 26 25 24 30 46 58 68 70 30 16 15 15 16 21 23 21 18 25
90 84 89 91 95 93 94 88 80 75 79 77 44 14 15 22 24 22 19 23 28 23 23 31 47 65 68 30 15 12 13 18 18 22 24 23 22 25
91 96 91 94 98 98 94 89 81 81 77 33 15 26 30 31 29 30 26 20 24 25 24 42 68 69 28 17 12 15 21 21 25 20 23 27 31 31
92 94 94 98 98 96 92 92 93 89 50 15 24 30 27 24 24 26 25 21 25 26 30 69 78 43 18 12 12 17 23 30 48 51 47 41 34 31
97 99 94 97 99 97 99 100 100 89 19 15 22 20 18 18 16 21 22 22 24 26 30 68 68 24 14 12 16 19 27 46 81 91 96 88 92 91

GFSNE_500_rhum_057.txt.gz
RH
27 31 40 24 12 16 13 12 14 13 18 22 19 19 18 17 16 19 21 20 8 10 9 10 12 13 20 24 49 70 43 57 32 88 100 100 57 88
38 44 27 12 15 14 11 11 13 14 18 20 20 19 16 17 19 20 22 10 11 12 11 12 12 12 12 15 38 62 85 90 100 100 100 100 62 60
48 31 13 15 15 12 10 11 15 16 17 20 18 16 17 19 24 20 11 14 15 14 15 16 15 15 13 14 16 38 69 84 91 96 100 100 99 96
36 14 14 16 14 11 10 14 14 17 18 16 16 17 16 18 14 13 17 18 17 18 19 19 19 18 17 15 14 13 27 59 87 86 98 100 100 89
17 16 18 15 12 12 13 13 18 19 17 17 16 16 14 15 18 20 22 23 25 25 23 22 21 20 18 17 15 14 13 13 25 75 93 90 95 91
18 19 17 15 14 14 13 18 21 19 18 17 16 17 18 20 24 28 34 36 35 33 30 27 25 23 19 18 18 17 16 15 14 12 15 23 49 49
22 20 19 20 15 18 23 24 22 20 18 18 18 20 22 28 40 45 44 42 42 41 39 35 31 29 27 27 26 24 22 20 18 17 17 15 13 12
23 29 23 18 19 23 27 28 26 24 22 22 23 24 28 35 41 40 42 50 50 47 43 41 38 37 36 33 30 27 26 24 22 20 20 20 19 18
33 29 23 22 23 24 32 33 32 30 27 27 28 28 30 37 41 41 55 63 57 49 46 43 44 44 39 34 31 28 27 26 25 24 23 23 23 22
36 29 25 24 27 32 39 40 42 41 39 42 44 45 46 50 56 60 62 65 67 65 58 52 55 55 52 46 42 39 38 36 34 32 32 30 29 28
36 32 29 30 35 42 42 45 52 49 54 56 57 59 60 61 64 67 71 73 74 77 76 73 71 71 69 67 66 63 61 58 54 49 48 48 45 38
37 36 34 36 39 41 42 44 38 41 44 41 42 43 46 55 63 67 70 74 78 83 82 84 80 83 86 86 84 80 75 70 66 66 66 63 57 48
44 46 43 42 38 39 42 41 35 40 40 44 47 46 45 52 57 61 66 73 77 81 85 87 85 79 75 73 70 69 73 77 82 86 84 79 74 69
59 62 63 57 51 45 42 42 48 54 52 56 60 62 65 66 66 70 73 78 84 88 87 74 36 15 12 21 42 60 70 73 67 77 80 76 71 61
67 67 66 68 71 64 54 44 48 58 61 67 72 78 82 82 84 85 87 91 91 84 41 12 13 13 13 19 26 31 32 33 35 35 38 51 61 61
70 68 68 69 68 67 71 61 52 58 64 69 72 72 74 80 82 86 93 91 58 15 15 19 18 14 19 25 25 32 40 62 69 60 56 54 41 27
75 82 84 76 75 79 77 66 64 70 73 72 69 67 69 73 77 78 59 19 15 22 27 28 26 18 21 23 24 33 50 57 58 53 31 14 13 14
97 98 93 94 92 84 81 73 76 79 79 82 79 72 71 74 71 28 15 24 28 28 28 30 34 29 22 25 26 45 63 58 40 16 12 10 12 15
99 100 100 98 92 82 81 84 82 88 87 89 83 78 79 77 26 22 26 29 25 23 23 24 24 25 20 25 37 82 68 42 17 10 10 12 16 20
100 100 100 100 92 86 87 83 86 88 91 90 92 94 89 56 18 25 27 22 19 18 17 19 21 22 20 23 33 77 55 22 11 12 14 17 36 24
100 100 100 99 97 93 89 88 93 93 94 97 100 100 98 25 16 20 19 18 19 23 25 26 27 26 23 23 29 63 37 13 11 14 15 30 64 72
100 100 99 98 100 99 98 96 95 94 94 96 100 100 57 14 17 18 18 22 37 43 38 36 37 27 21 20 25 60 25 12 14 21 23 35 66 84
100 100 100 100 100 100 100 97 96 98 96 96 100 67 17 17 17 20 32 55 66 56 52 50 37 22 19 20 37 59 14 13 14 31 66 70 83 88

GFSNE_500_rhum_063.txt.gz
RH
73 62 53 50 50 47 46 49 47 51 41 18 16 14 11 9 10 14 15 14 14 14 16 12 12 13 14 16 18 18 18 16 13 11 10 28 78 84
62 62 63 64 58 50 53 56 53 54 28 19 16 12 10 11 13 16 15 13 12 12 12 13 15 16 19 22 22 21 20 19 15 13 12 11 29 78
64 59 61 63 62 61 63 62 61 46 20 18 14 13 14 15 16 16 14 12 13 14 15 16 19 24 27 27 27 26 24 23 19 18 19 16 12 28
67 63 62 63 61 61 63 67 58 22 20 18 16 16 16 17 18 16 14 13 14 15 17 21 30 31 35 36 35 34 30 27 27 25 26 26 20 15
72 70 65 64 64 61 65 60 32 22 22 22 20 20 20 20 19 17 15 16 17 18 22 34 39 40 39 36 40 39 36 35 33 32 33 31 26 21
62 57 58 59 62 61 50 31 25 28 27 25 23 25 23 23 23 20 19 20 20 22 27 34 37 37 40 48 49 43 40 38 38 38 35 32 28 25
60 55 51 46 40 34 27 27 32 32 31 29 29 30 29 28 27 25 24 25 24 25 28 32 35 45 56 57 57 55 51 47 47 47 45 39 34 31
60 54 49 43 34 30 39 43 37 40 36 37 38 37 37 35 35 34 36 40 43 44 46 47 51 55 60 62 64 66 66 64 61 61 62 58 52 46
59 59 46 37 39 43 50 43 47 45 43 40 43 46 44 43 45 39 38 36 29 32 30 36 50 62 62 55 56 62 69 74 75 72 69 66 63 61
76 72 64 57 61 62 48 54 81 58 50 49 53 50 43 39 34 30 32 32 35 37 36 35 42 52 53 54 60 62 64 66 68 67 61 52 41 29
87 88 79 88 66 57 81 75 62 65 70 60 57 48 42 39 35 36 38 41 45 48 52 56 61 65 68 72 75 75 75 72 60 24 12 12 13 12
100 100 100 78 66 93 84 76 81 77 67 61 55 51 50 46 43 43 44 49 52 56 63 69 78 83 84 80 81 79 63 22 13 13 10 12 13 15
100 100 96 98 100 100 98 98 92 83 76 74 92 98 91 79 65 55 52 56 58 60 60 61 64 72 72 74 58 20 15 16 12 13 15 21 26 26
100 100 100 100 100 100 100 100 100 100 99 99 99 97 88 81 70 65 64 64 63 61 58 57 59 64 60 30 16 20 19 16 18 20 26 30 29 32
100 99 100 100 100 100 100 100 99 99 99 100 100 98 92 80 73 69 70 70 71 72 68 64 65 62 22 20 26 22 20 23 31 36 37 34 31 25
100 100 100 100 98 100 100 98 100 100 100 100 100 95 85 75 74 73 72 74 73 75 72 72 76 44 23 27 28 23 21 23 34 48 52 49 49 36
100 99 99 100 100 99 99 100 100 100 100 100 97 93 82 75 71 72 74 81 80 76 78 87 84 42 24 24 23 20 20 33 55 65 64 63 54 36
100 100 100 100 100 100 100 100 100 100 100 100 98 92 84 80 79 79 85 82 79 79 82 82 86 48 17 20 21 20 40 61 72 73 65 62 47 23
100 100 99 100 100 98 100 100 100 100 100 98 95 96 94 92 93 93 88 81 79 81 82 83 72 19 19 19 26 56 66 79 71 73 66 46 25 19
100 100 100 100 100 100 100 100 100 100 100 96 96 98 100 100 99 94 91 84 83 88 90 69 21 19 25 48 59 85 75 68 69 58 25 18 20 22
100 100 100 100 99 96 96 99 99 100 100 100 100 100 100 100 100 100 100 98 94 91 88 24 19 35 42 47 51 62 72 65 38 17 19 44 57 68
72 70 67 62 62 63 68 69 71 80 83 87 100 100 100 100 100 100 100 100 99 100 46 19 37 41 51 49 38 55 56 21 16 17 48 58 52 25
46 39 34 30 27 26 27 28 28 39 61 74 96 96 100 100 100 100 100 100 100 87 20 38 41 47 57 34 44 50 19 16 20 60 79 50 21 15

GFSNE_500_rhum_066.txt.gz
RH
84 78 72 73 74 63 60 61 61 59 53 52 56 53 42 25 17 13 11 14 15 15 13 12 11 11 13 15 17 19 22 22 21 21 17 13 13 13
99 85 76 68 63 63 64 64 67 61 58 57 59 57 34 21 17 13 14 16 15 14 11 11 12 13 16 20 25 27 27 28 27 25 22 17 18 20
100 86 79 69 68 65 63 63 69 68 64 66 68 56 26 21 18 15 16 17 16 12 12 12 13 15 18 26 30 34 37 38 36 31 28 25 24 25
100 98 91 81 74 67 69 68 71 68 66 70 70 37 23 23 18 20 18 19 16 14 15 14 15 18 25 30 33 35 33 40 43 38 35 33 32 32
95 98 98 95 88 89 88 73 69 65 72 61 33 27 28 26 23 24 22 21 19 18 18 18 19 22 29 33 31 32 34 48 48 42 39 38 38 36
94 95 97 89 87 85 65 59 58 52 51 32 32 33 30 29 29 26 26 25 23 22 22 22 22 24 27 30 32 42 49 51 54 52 49 46 45 44
91 97 94 86 77 66 61 51 42 37 33 37 44 36 36 34 35 33 31 30 29 28 28 30 32 35 39 42 48 49 54 57 57 58 61 61 58 57
50 57 56 65 64 62 58 43 38 38 45 54 41 45 56 51 39 40 39 40 41 43 45 39 35 30 28 36 42 47 53 54 53 56 63 70 72 70
45 55 72 70 69 72 71 54 51 63 63 48 66 68 79 52 53 48 50 45 45 38 28 27 29 31 33 34 37 41 48 56 60 64 67 71 72 69
59 68 76 80 86 85 86 75 70 69 54 65 95 82 73 80 58 55 49 40 36 33 32 36 39 43 46 50 53 57 62 68 73 74 75 72 67 49
74 83 92 98 97 100 100 92 73 57 86 96 80 92 90 68 66 60 58 56 49 46 44 44 48 53 58 62 65 66 70 72 73 73 71 42 15 11
89 93 98 99 100 100 100 100 90 100 98 98 98 94 80 74 70 81 96 97 88 61 54 57 55 57 57 56 55 52 55 60 61 38 14 15 12 14
100 92 99 100 100 100 100 98 100 99 98 100 100 99 95 95 100 99 95 84 72 67 64 63 64 62 58 54 55 54 55 50 22 16 19 17 17 21
100 100 97 100 100 100 100 100 100 100 99 99 100 100 100 100 100 100 93 81 75 71 69 67 69 73 70 65 61 60 52 25 20 22 21 22 24 28
100 99 100 98 100 100 98 97 97 97 100 100 100 100 100 100 100 95 83 75 72 73 72 71 78 77 75 73 75 73 42 25 25 26 25 21 21 34
100 98 99 100 100 100 100 100 100 100 100 100 100 100 100 100 96 87 81 72 69 69 72 76 76 77 80 89 97 76 36 26 22 24 23 20 37 50
100 100 99 100 100 100 100 100 100 100 100 100 100 100 100 99 91 86 79 79 78 74 78 78 73 74 81 95 100 93 42 22 18 20 23 50 62 61
100 97 98 100 100 100 100 99 98 99 100 100 100 100 98 94 87 85 90 88 90 86 82 82 79 76 82 94 99 92 33 18 19 37 43 45 56 53
100 100 100 100 100 100 100 100 100 100 100 100 100 100 100 95 96 92 93 100 100 99 96 94 90 84 85 96 95 27 18 27 37 40 41 31 40 53
100 93 90 94 100 100 100 100 100 99 100 100 100 100 99 97 96 99 97 99 100 100 99 93 93 94 98 100 56 20 27 35 36 44 32 32 43 19
100 100 100 99 98 97 98 98 90 80 78 71 70 71 72 83 92 97 100 100 100 100 100 100 100 98 100 100 26 33 45 33 38 29 30 40 24 17
66 72 74 75 67 61 57 52 50 46 38 30 32 34 36 48 79 94 100 100 100 100 100 100 100 98 100 76 27 47 46 47 30 30 37 27 20 20
49 51 53 53 49 42 38 29 23 24 26 25 26 32 47 48 47 62 100 100 100 100 100 100 100 100 88 60 48 41 45 32 33 36 20 21 18 34

GFSNE_500_rhum_069.txt.gz
RH
87 85 79 84 78 76 80 89 77 67 62 60 59 61 58 57 61 64 60 31 19 15 14 14 13 13 11 11 11 13 15 19 22 24 24 25 23 18
67 70 81 88 87 85 83 92 86 71 66 64 66 64 62 62 64 69 58 25 21 16 17 15 14 12 12 12 14 17 20 26 28 31 34 33 31 25
51 60 79 86 86 84 89 96 97 85 78 72 68 72 72 70 71 67 37 26 24 20 18 17 14 12 14 14 17 21 26 33 37 34 32 38 38 33
54 52 61 78 85 83 97 97 98 97 96 95 91 91 92 88 84 54 31 29 24 23 20 19 16 16 16 16 21 30 34 35 34 32 37 46 43 39
70 63 71 92 95 99 99 100 98 99 95 97 95 93 86 66 54 35 34 32 27 26 24 22 20 20 19 20 24 30 31 31 34 45 50 53 48 46
64 47 89 86 97 94 99 100 98 96 86 71 61 47 54 38 36 39 37 33 31 31 28 27 25 24 23 24 27 29 33 39 47 54 59 62 63 61
13 16 41 62 54 63 82 99 98 93 86 77 67 50 46 49 48 41 39 41 72 37 35 34 32 30 32 34 35 35 31 29 37 47 53 57 59 63
20 28 36 39 41 50 54 64 69 73 70 69 49 48 53 57 48 54 63 95 48 62 42 44 46 45 45 34 25 27 29 30 34 40 48 50 53 57
32 36 47 55 49 44 59 71 80 85 85 75 61 75 63 50 55 72 90 62 74 58 56 54 52 45 37 36 36 39 42 44 46 49 53 59 66 68
53 57 62 66 53 58 74 90 98 96 100 94 93 84 65 62 85 86 74 78 63 58 51 50 52 50 49 49 47 48 51 53 58 64 68 70 73 70
66 63 65 66 66 74 82 88 98 100 100 100 98 65 85 100 92 97 85 73 69 60 60 62 62 62 54 53 52 51 53 55 52 52 55 61 64 65
71 71 72 79 87 96 94 95 100 100 100 100 76 96 100 99 100 97 90 80 71 91 98 93 80 70 64 63 57 55 56 52 50 52 55 57 58 30
78 81 95 99 100 98 95 100 100 100 100 100 99 99 99 100 98 98 100 100 100 96 94 88 79 73 68 66 64 63 62 60 59 57 57 53 26 18
90 90 92 98 100 100 100 100 100 100 98 100 100 100 100 100 100 100 100 100 100 98 92 79 74 69 65 62 66 68 70 68 66 66 66 35 21 23
93 94 100 97 100 100 93 93 100 100 100 100 100 100 100 100 100 100 100 98 99 93 85 77 71 67 66 67 70 70 72 75 80 81 72 29 26 26
94 94 95 100 100 100 100 100 100 100 98 99 100 100 100 100 100 100 99 96 97 86 81 80 79 77 77 78 79 68 61 66 66 78 90 38 27 26
100 96 92 97 100 100 100 100 100 100 100 98 92 87 82 97 100 99 100 98 94 93 94 92 89 89 88 89 90 80 73 67 62 71 86 87 39 20
98 99 94 96 93 92 92 91 90 94 92 92 92 94 94 100 99 100 100 96 86 83 86 88 91 97 98 100 100 98 91 83 77 86 82 24 19 29
100 94 95 97 92 88 97 99 95 96 100 100 100 96 96 97 100 94 94 97 96 94 94 92 86 91 100 100 100 100 100 87 88 100 58 19 31 44
98 94 95 96 98 100 100 100 100 100 100 100 100 100 98 100 100 98 91 84 71 71 78 89 96 98 100 100 100 100 96 91 86 96 48 23 36 38
100 100 98 97 97 96 99 100 100 100 100 98 88 74 68 64 55 43 42 39 36 40 53 84 100 100 100 100 100 100 100 95 89 87 52 53 38 34
89 75 62 60 63 69 75 75 76 72 65 58 47 37 30 28 27 26 32 40 42 54 66 64 91 100 100 100 100 100 100 97 86 83 67 39 35 30
62 52 46 37 36 47 59 59 59 50 44 32 27 30 30 26 31 40 44 40 42 45 55 73 84 99 97 98 100 100 100 99 81 44 46 35 31 31

GFSNE_500_rhum_072.txt.gz
RH
80 76 68 61 63 71 71 61 58 72 83 78 73 73 78 73 69 68 72 69 70 72 67 37 22 16 17 15 12 11 11 11 14 19 24 23 24 30
66 59 54 56 55 63 63 61 64 76 79 77 86 86 91 87 83 89 91 83 82 83 84 35 23 19 18 16 12 12 13 13 17 24 26 30 31 30
86 74 66 57 49 43 48 46 65 89 94 91 96 100 100 95 97 97 96 97 93 93 53 32 24 21 19 16 14 14 15 17 22 28 32 31 29 30
77 63 52 44 41 39 53 60 62 72 85 98 100 99 98 98 100 100 100 95 77 90 55 32 26 23 21 19 18 18 18 22 29 36 36 31 30 35
44 40 38 27 32 67 66 69 99 97 100 96 99 100 99 98 93 72 63 87 58 43 36 32 28 27 25 22 21 21 23 26 34 32 32 36 42 42
18 17 15 15 16 16 19 26 68 90 94 94 94 92 89 98 98 89 60 53 60 44 49 40 35 40 30 28 26 26 29 28 31 34 39 44 45 46
19 17 17 17 17 20 26 33 40 47 58 62 65 74 88 92 94 82 73 85 68 68 41 69 81 44 56 34 33 32 34 39 43 40 36 39 44 49
20 19 20 21 21 23 27 31 40 52 46 54 74 77 78 85 82 76 81 76 61 53 73 94 83 86 48 48 54 56 45 38 36 37 40 43 46 56
32 33 34 35 36 41 45 49 60 63 60 74 87 93 94 95 85 95 63 54 73 100 100 90 81 68 66 62 56 48 44 46 47 48 51 53 56 61
46 48 46 41 47 56 54 53 66 68 76 84 84 92 96 100 100 73 76 91 99 100 100 99 80 71 62 60 59 57 55 53 54 56 56 57 60 64
47 43 43 54 63 68 67 71 75 82 93 95 97 86 100 100 100 100 89 100 100 100 100 99 91 91 78 76 78 80 84 74 58 56 56 55 52 51
43 50 63 66 68 73 91 100 100 88 84 94 91 94 100 100 97 80 100 100 100 100 100 100 99 100 100 100 94 79 69 64 61 59 59 56 54 53
54 63 70 82 79 86 89 94 83 94 93 100 100 100 100 100 86 99 100 98 100 100 100 100 100 99 98 86 75 69 63 61 62 63 68 70 68 62
59 72 80 84 80 92 92 97 93 100 98 99 100 100 100 100 100 100 100 100 100 100 100 99 96 95 86 77 69 62 59 59 63 66 70 72 72 73
75 85 90 88 89 93 100 88 94 100 100 100 94 96 98 99 100 100 100 89 95 99 100 100 98 91 82 74 70 64 60 63 63 63 66 67 70 80
81 83 93 91 99 100 100 100 97 100 100 100 100 100 100 99 89 75 77 81 96 97 98 100 95 91 86 82 84 73 67 69 73 76 73 66 66 68
82 88 96 97 100 100 100 100 100 98 90 84 75 71 75 86 85 86 90 93 92 94 99 95 87 82 84 85 86 76 73 77 69 76 86 92 86 75
94 99 99 100 100 100 100 98 93 92 92 99 94 93 91 87 90 95 99 100 97 96 98 98 97 96 98 95 94 95 88 86 85 82 85 93 93 76
100 100 100 100 100 100 100 97 91 90 94 97 97 94 95 99 100 100 100 100 100 100 100 100 92 76 79 74 72 90 100 100 98 100 90 90 100 97
100 100 100 100 100 100 100 97 89 89 97 100 100 100 100 100 100 98 93 89 82 72 53 34 30 29 33 43 53 73 99 89 85 99 100 97 99 100
100 100 100 100 100 97 95 98 100 100 100 100 100 100 100 95 82 65 50 41 32 28 26 25 27 33 34 32 45 55 71 93 100 100 100 100 100 100
100 100 100 100 100 91 77 73 68 65 67 72 75 72 68 56 46 32 28 32 30 28 30 38 44 50 39 39 72 84 73 76 82 75 97 100 100 100
100 100 100 100 99 69 52 44 37 37 47 60 61 51 43 31 31 38 35 28 26 31 42 52 63 75 62 42 57 96 100 99 94 94 100 93 89 70